Location: Unspecified
(0.0000°N, 0.0000°E)
Time: 04:15:39
(UTC+00:00)

Tiangong - Pass Details

Date: 25 March 2026
Orbit: 375 x 384 km, 41.5° (Epoch: 20 April)

Event Time Altitude Azimuth Distance (km) Brightness Sun altitude
Rises 18:22:24 0° 207° (SSW) 2,248 2.1 -4.1°
Reaches altitude 10° 18:24:44 10° 192° (SSW) 1,390 0.8 -4.7°
Maximum altitude 18:27:18 23° 137° (SE) 862 -0.8 -5.3°
Drops below altitude 10° 18:29:51 10° 82° (E) 1,378 0.0 -6.0°
Enters shadow 18:30:31 - 75° (ENE) 1,610 0.4 -6.1°
